SNUGLITE 2
1 52899U 22065F   25357.39703169  .00001216  00000-0  24188-3 0  9994
2 52899  98.1933 137.8701 0006975 208.2722 151.8102 14.63864224185276
UmKA 1 (RS40S)
1 57172U 23091G   25357.81467168  .00006705  00000-0  32938-3 0  9996
2 57172  97.5321  52.2313 0013847  17.2322 342.9379 15.18310894137375
CubeBel-2 (EU11S)
1 57175U 23091K   25357.81619417  .00013329  00000-0  54687-3 0  9990
2 57175  97.5318  54.8201 0011259  20.2869 339.8813 15.24306201137544
RS-38S
1 57189U 23091Z   25357.82770678  .00015656  00000-0  54605-3 0  9998
2 57189  97.5344  59.3778 0007767 344.2069  15.8927 15.29685582137822
SONATE-2
1 59112U 24043Q   25357.66084691  .00028135  00000-0  58357-3 0  9993
2 59112  97.5339 134.3244 0009372 123.8558 236.3584 15.45640495100667
MO-122
1 60209U 24125G   25357.85234934  .00032249  00000-0  63782-3 0  9990
2 60209  97.2508 208.2367 0015035 137.7864 222.4546 15.46923863 82325
GRBBeta
1 60237U 24128C   25357.78192075  .00005199  00000-0  36829-3 0  9991
2 60237  61.9907 110.9237 0055838  98.7145 262.0278 15.04862798 79854
Curium One
1 60242U 24128H   25356.86799776  .00010483  00000-0  64778-3 0  9992
2 60242  61.9800 108.7564 0055603  95.2860 265.4582 15.09071834 79815
ROBUSTA-3A
1 60243U 24128J   25356.87596858  .00009803  00000-0  61833-3 0  9993
2 60243  61.9873 110.3075 0055830  92.7610 267.9875 15.08373920 79798
CatSat
1 60246U 24125J   25357.84425701  .00036512  00000-0  85734-3 0  9992
2 60246  97.2295 205.1145 0034401 105.0443 255.4615 15.41308029 80235
HYPERVIEW-1G (RS66S)
1 61772U 24199AP  25357.85916766  .00046586  00000-0  86591-3 0  9999
2 61772  97.3194 227.4398 0008674 188.8766 171.2333 15.48724753107332
AO-123
1 61781U 24199AY  25357.90660059  .00011365  00000-0  36718-3 0  9999
2 61781  97.3236 223.2357 0013383 211.0678 148.9774 15.32175803107050
ZIMSAT 2
1 61783U 24199BA  25355.37070692  .00235620  00000-0  14200-2 0  9991
2 61783  97.3058 228.7877 0005306 149.2329 210.9249 15.77002175110367
HADES-R (SO-124)
1 62690U 25009CK  25357.21825658  .00196287  00000-0  21712-2 0  9996
2 62690  97.3857  80.2682 0001213 272.4682  87.6437 15.62371008 52418
HYDRA-T
1 62692U 25009CM  25357.18243663  .00231024  00000-0  23181-2 0  9995
2 62692  97.3841  80.4676 0001911 282.8092  77.2954 15.64758877 52428
JINJUSat 1B
1 63210U 25052A   25357.20575510  .00017527  00000-0  66292-3 0  9993
2 63210  97.4198 249.2980 0004483  20.7209 339.4211 15.27009235 43188
NUSHSAT 1
1 63211U 25052B   25357.19369290  .00021155  00000-0  77282-3 0  9991
2 63211  97.4179 249.4225 0004644  23.8767 336.2687 15.28117617 43192
TEVEL2-4
1 63213U 25052D   25356.15102772  .00019851  00000-0  74192-3 0  9995
2 63213  97.4099 247.9164 0004563  43.1537 317.0059 15.27378399 43027
TEVEL2-5
1 63214U 25052E   25357.20521451  .00018670  00000-0  69885-3 0  9993
2 63214  97.4096 248.9497 0004464  41.5376 318.6202 15.27341002 43183
TEVEL2-6
1 63215U 25052F   25355.64039829  .00014669  00000-0  55179-3 0  9998
2 63215  97.4108 247.3833 0004638  43.5649 316.5955 15.27230257 42947
TEVEL2-1
1 63217U 25052H   25356.93013094  .00019387  00000-0  73414-3 0  9993
2 63217  97.4067 248.4665 0004983  49.6280 310.5393 15.26947294 43136
TEVEL2-3
1 63218U 25052J   25357.19130529  .00018537  00000-0  70145-3 0  9990
2 63218  97.4076 248.7327 0005029  49.9387 310.2292 15.26979834 43172
TEVEL2-2
1 63219U 25052K   25357.19301735  .00018565  00000-0  70297-3 0  9999
2 63219  97.4073 248.7284 0004891  49.3060 310.8603 15.26958709 43170
TEVEL2-9
1 63237U 25052AD  25357.16638854  .00017514  00000-0  69377-3 0  9991
2 63237  97.4138 248.3934 0009011  53.2916 306.9148 15.25442228 43132
TEVEL2-7
1 63238U 25052AE  25357.64057653  .00016869  00000-0  67118-3 0  9990
2 63238  97.4142 248.8354 0009094  51.9070 308.2987 15.25300434 43202
TEVEL2-8
1 63239U 25052AF  25357.18716645  .00017731  00000-0  70614-3 0  9997
2 63239  97.4139 248.3702 0009051  53.1800 307.0267 15.25258624 43132
HYDRA-W
1 63490U 25052BL  25357.21405705  .00074608  00000-0  16905-2 0  9990
2 63490  97.4053 251.1550 0010835  44.8331 315.3790 15.42770741 43330
HADES-ICM (SO-125)
1 63492U 25052BN  25357.15778696  .00067050  00000-0  16329-2 0  9990
2 63492  97.4062 250.7978 0011257  47.3875 312.8319 15.40625073 43302
Dragonfly
1 65729U 98067XH  25357.59706068  .00194220  00000-0  12194-2 0  9999
2 65729  51.6249  80.0166 0007867 342.4856  17.5871 15.75592053 14870
RSP-03
1 65732U 98067XL  25357.49639757  .00140046  00000-0  10641-2 0  9994
2 65732  51.6265  81.6104 0005906 319.9929  40.0633 15.71335207 14850
GHS-01
1 65733U 98067XM  25357.46185537  .00275731  00000-0  14328-2 0  9990
2 65733  51.6283  79.8731 0008800 346.0913  13.9844 15.79591896 14877
BOTAN
1 65942U 98067XP  25357.26137366  .00114200  00000-0  11277-2 0  9990
2 65942  51.6284  86.0542 0003228 325.6529  34.4257 15.65035738 11512
BEE-1000
1 66650U 25274A   25357.61939730  .00001634  00000-0  16788-3 0  9990
2 66650  97.7405 284.6079 0010986 211.3109 148.7457 14.91696027  4021
SPIRONE
1 66657U 25274H   25357.33721610  .00002999  00000-0  29728-3 0  9995
2 66657  97.7400 284.3612 0010908 235.5938 124.4250 14.92510020  3980
K-HERO
1 66660U 25274L   25357.52921037  .00002667  00000-0  26153-3 0  9996
2 66660  97.7405 284.5730 0012735 240.8290 119.1655 14.93015300  4019
SNUGLITE-III DURI
1 66661U 25274M   25357.52662995  .00002334  00000-0  22881-3 0  9997
2 66661  97.7404 284.5754 0013391 242.3524 117.6337 14.93148660  4017
SilverSat
1 66909U 98067XV  25356.51144008  .00071888  00000-0  11325-2 0  9990
2 66909  51.6306  93.7929 0003866 288.2093  71.8476 15.52898333  3134
CEVROSAT1
1 98526U 25248E   25313.13142326  .00000000  00000-0  19360-3 0    02
2 98526  45.4084 218.4764 0001315 254.8982 242.1062 15.17981583    02
